{"data":{"norad_id":49076,"epoch":"2026-09-19T22:58:58.944288Z","epoch_age_seconds":72640,"freshness":"FRESH","line1":"1 49076U 21075B   26262.95762667  .00000327  00000+0  87452-3 0  9997","line2":"2 49076  87.8974 331.8582 0002046 103.9753 256.1603 13.12441115246997","mean_motion":13.12441115,"eccentricity":0.0002046,"inclination_deg":87.8974,"raan_deg":331.8582,"arg_perigee_deg":103.9753,"mean_anomaly_deg":256.1603,"bstar":0.00087452,"rev_number":24699,"period_min":109.71920824044,"perigee_km":1212.1772641743,"apogee_km":1215.2838563799,"semimajor_km":7591.8675602771,"source":"CELESTRAK","updated_at":"2026-09-20T09:00:44.630874Z"}}